Location: *
(49.7115°N, 15.0136°E)
Time: 22:38:39
(UTC+00:00)

STARLINK-31 - Pass Details

Date: 27 February 2020
Orbit: 529 x 530 km, 53.0° (Epoch: 05 April)

Event Time Altitude Azimuth Distance (km) Brightness Sun altitude
Rises 19:01:52 0° 288° (WNW) 2,672 8.6 -23.8°
Reaches altitude 10° 19:04:07 10° 291° (WNW) 1,781 7.3 -24.2°
Enters shadow 19:07:32 55° 330° (NNW) 644 4.1 -24.7°
